User: anonymous   Login
Location: Caltech
(34.1382°N, 118.1253°W)
Time: 21:13:36
(UTC-07:00)
Language:

Cosmos 1758 Rocket - Orbit

View from above orbital plane
View from above orbital plane
View from above satellite
View from above satellite

Ground track
Ground track

The orbit data is extracted from the following two-line orbital elements,

1 16792U 86046B   15113.97718539  .00000748  00000-0  88981-4 0  9996
2 16792 082.4851 221.1196 0024262 001.7827 117.5137 14.82890319558501
Epoch (UTC): 23 April 2015 23:27:08
Eccentricity: 0.0024262
inclination: 82.4851°
perigee height: 603 km
apogee height: 637 km
right ascension of ascending node: 221.1196°
argument of perigee: 1.7827°
revolutions per day: 14.82890319
mean anomaly at epoch: 117.5137°
orbit number at epoch: 55850

The dashed part of the orbit path shows where the satellite is in the earth's shadow,  

DLR